Location: Crouy
(49.4027°N, 3.3583°E)
Time: 20:11:47
(UTC+00:00)

Daily predictions for brighter satellites

Satellite Brightness Start Highest point End
(mag) Time Altitude Azimuth Time Altitude Azimuth Time Altitude Azimuth
Cosmos 1092 Rocket 4.4 17:51:07 10° N 17:56:57 41° ENE 18:02:49 10° SE
BREEZE-M DEB (TANK) 3.2 17:56:26 10° W 17:58:57 43° SSW 18:04:48 10° SE
Cosmos 1464 Rocket 4.0 17:53:42 10° S 17:59:51 76° E 18:06:06 10° NNE
PSLV R/B 4.0 17:55:43 10° NNE 17:59:56 70° ESE 18:04:08 10° S
COSMO-SKYMED 1 2.5 17:57:18 10° NNE 18:01:40 77° ESE 18:06:01 10° S
Cosmos 2263 Rocket 4.3 17:57:57 10° W 18:02:34 26° NW 18:07:13 10° NNE
COSMOS 2455 4.2 17:59:21 10° SE 18:02:56 16° ESE 18:06:32 10° ENE
ERS-2 4.5 17:59:48 10° N 18:02:58 28° WNW 18:06:08 10° SW
Cosmos 1844 Rocket 2.9 17:58:01 10° SSW 18:03:37 78° WNW 18:09:15 10° NNE
Okean-O 2.6 17:59:41 10° SSE 18:04:06 79° ENE 18:08:34 10° NNW
Cosmos 1689 Rocket 2.4 18:02:39 10° N 18:05:37 71° WNW 18:08:32 10° SSW
Cosmos 2151 Rocket 3.6 18:01:15 10° S 18:05:43 73° E 18:10:15 10° NNE
CZ-2C R/B 3.4 18:00:33 10° SE 18:05:58 56° ENE 18:11:38 10° N
H-2A R/B 2.4 18:03:02 10° SE 18:07:50 43° ENE 18:12:48 10° N
KORONAS-FOTON 3.8 18:09:17 10° N 18:13:13 70° E 18:17:06 10° SSE
Cosmos 2285 Rocket 4.0 18:08:26 10° SSW 18:14:43 73° ESE 18:21:06 10° NNE
Cosmos 1025 Rocket 3.8 18:11:38 10° NNW 18:15:58 57° W 18:20:17 10° S
SJ-6B 4.5 18:15:12 12° E 18:17:09 16° ENE 18:19:35 10° NNE
Cosmos 1300 Rocket 4.1 18:12:46 10° SSW 18:17:10 66° WNW 18:21:38 10° N
ISS -3.5 18:15:01 10° WNW 18:18:24 63° N 18:21:09 14° E
Cosmos 1805 3.4 18:17:19 10° S 18:21:07 52° E 18:24:57 10° NNE
TSX-5 4.1 18:17:30 10° SSW 18:21:37 74° ESE 18:27:01 10° NE
Cosmos 2278 Rocket 2.7 18:18:40 10° S 18:23:45 36° ESE 18:28:51 10° NE
Cosmos 1125 Rocket 4.0 18:24:45 10° SW 18:30:02 65° WNW 18:35:21 10° NNE
Cosmos 1833 Rocket 2.7 18:24:31 10° NNW 18:30:11 67° ENE 18:35:48 10° SE
Cosmos 1844 4.2 18:25:09 10° SW 18:30:45 63° WNW 18:36:21 10° NNE
Nadezhda 4 Rocket 4.2 18:24:58 10° NNW 18:31:07 78° W 18:37:15 10° S
CSL-04 Rocket 3.7 18:26:05 10° SSE 18:31:34 77° ENE 18:37:08 10° NNW
HJ-1C 3.3 18:28:18 10° SSE 18:31:34 60° ENE 18:34:51 10° N
Cosmos 2251 Rocket 4.2 18:26:37 10° NNW 18:31:36 37° ENE 18:35:38 15° ESE
Okean 1 Rocket 3.1 18:27:50 10° S 18:32:16 65° E 18:36:44 10° NNE
COSMOS 2406 3.2 18:30:51 10° NNW 18:36:35 88° WSW 18:42:16 10° SSE
Cosmos 1340 Rocket 3.2 18:33:32 10° SSE 18:37:17 41° E 18:41:06 10° NNE
CSL-04 Debris 4.2 18:31:57 10° SSE 18:37:21 88° ENE 18:42:47 10° NNW
YAOGAN 1 3.2 18:37:50 10° S 18:42:06 59° W 18:46:24 10° NNW
Lacrosse 4 Rocket 1.3 18:38:07 10° NNW 18:42:12 66° NE 18:45:15 17° SE
Cosmos 1674 3.7 18:39:44 10° NNW 18:43:28 50° W 18:47:10 10° S
Lacrosse 5 rocket 1.7 18:39:51 10° NW 18:44:12 60° NNE 18:46:58 22° ESE
CZ-4C R/B 2.7 18:44:31 10° S 18:48:52 31° ESE 18:53:54 10° NE
Cosmos 1758 4.4 18:50:55 25° E 18:50:55 25° E 18:54:10 10° NE
Exosat Rocket 3.8 18:46:08 10° SSW 18:51:14 71° WNW 18:56:25 10° NNE
CZ-4 R/B 3.1 18:51:26 10° SSW 18:55:16 35° W 18:59:04 10° NNW
Cosmos 1892 Rocket 3.5 18:53:35 10° N 18:57:54 62° ENE 19:01:33 14° SSE
ARGOS 3.1 18:53:55 10° SSE 18:59:17 86° ENE 19:04:44 10° NNW
FREGAT/IRIS 4.2 19:01:27 19° NNE 19:01:27 19° NNE 19:02:31 10° N
Meteor 1-24 Rocket 3.8 18:54:53 10° NNW 19:00:35 88° W 19:06:29 10° S
CZ-2C R/B 3.1 18:56:21 10° NNE 19:01:40 41° E 19:06:57 10° SSE
MOS 1 Rocket 2.9 18:57:22 10° NNE 19:01:43 79° ESE 19:06:00 10° S
APEX 3.5 18:59:58 10° S 19:03:05 38° ESE 19:03:27 37° E
Cosmos 1626 2.4 19:00:03 10° NNW 19:03:45 69° W 19:07:25 10° S
USA 186 1.8 19:04:00 39° SE 19:04:58 60° ENE 19:08:11 10° N
Cosmos 1544 Rocket 4.3 19:05:34 30° E 19:05:34 30° E 19:09:01 10° NNE
MOS 1 4.4 19:03:08 18° SE 19:07:20 58° ENE 19:12:56 10° N
Meteor 1-22 Rocket 4.3 19:01:36 10° S 19:07:38 83° E 19:13:47 10° NNE
Aureole 2 Rocket 2.9 19:05:42 10° SW 19:08:57 55° WNW 19:12:08 10° NNE
Cosmos 1470 2.9 19:08:02 27° SSE 19:09:47 47° E 19:13:32 10° NNE
SL-14 R/B 3.5 19:05:51 10° NNW 19:09:49 71° W 19:13:49 10° S
Ariane Rocket 3.0 19:06:14 18° SSE 19:09:57 65° ENE 19:15:01 10° N
Resurs 01 Rocket 2.9 19:10:02 23° ENE 19:10:02 23° ENE 19:13:28 10° N
Cosmos 1766 4.1 19:08:21 10° SSW 19:12:13 52° WNW 19:16:08 10° N
NOSS 3-4 (A) 3.9 19:09:19 10° WSW 19:15:14 63° NW 19:21:40 10° NE
NOSS 3-4 (C) 3.9 19:09:25 10° WSW 19:15:20 63° NW 19:21:46 10° NE
SL-8 R/B 4.2 19:11:52 10° SW 19:16:19 39° SSE 19:17:02 36° SE
Cosmos 2098 Rocket 3.8 19:11:36 10° N 19:17:35 49° ENE 19:19:21 35° ESE
Cosmos 1733 4.1 19:13:59 10° SSW 19:17:42 49° WNW 19:21:25 10° N
MetOp-A 4.1 19:16:54 25° SSE 19:20:03 66° ENE 19:25:24 10° N
Cosmos 407 Rocket 4.2 19:17:59 10° N 19:22:42 34° NE 19:23:25 33° ENE
Resurs 1-3 4.0 19:23:00 42° ENE 19:23:16 42° ENE 19:27:25 10° N
ARIANE 5 R/B 4.4 19:24:52 18° NE 19:24:52 18° NE 19:26:55 10° NNE
RESURS DK-1 2.2 19:19:57 10° SSW 19:24:06 87° ESE 19:28:17 10° NNE
ATLAS 3B R/B 3.4 19:19:03 10° NW 19:25:42 54° WSW 19:31:52 13° SSE
SL-08 RB Rocket 3.8 19:23:00 15° S 19:26:43 73° WSW 19:31:14 10° NNW
Cosmos 1634 Rocket 4.1 19:20:41 10° SSW 19:26:52 76° W 19:33:08 10° N
deb Kosmos-1763 4.0 19:24:23 10° NNW 19:27:49 64° NE 19:27:49 64° NE
USA 290 3.9 19:28:28 10° N 19:30:11 24° NNE 19:30:11 24° NNE
Cosmos 1602 Rocket 4.2 19:30:58 10° N 19:34:33 39° NE 19:34:33 39° NE
Cosmos 1461 3.1 19:31:05 10° NW 19:35:53 75° NE 19:36:42 59° ESE
Cosmos 2082 Rocket 2.3 19:30:48 10° NNW 19:36:25 71° WSW 19:39:28 28° SSE
ATLAS 2AS CENTAUR R/B 3.5 19:30:03 10° WSW 19:37:56 61° NW 19:45:40 10° NE
Meteor 2-10 4.0 19:35:05 27° SSE 19:37:57 59° E 19:43:07 10° NNE
Cosmos 1626 Rocket 3.5 19:39:48 10° N 19:44:08 66° ENE 19:44:08 66° ENE
H-2A R/B 3.8 19:42:58 10° SSW 19:47:25 30° W 19:52:00 10° NNW
COSMOS 2455 2.7 19:41:56 10° SSW 19:47:58 82° ESE 19:54:03 10° NE
Cosmos 1455 Rocket 3.2 19:44:02 10° SSW 19:48:24 70° WNW 19:52:45 10° N
Cosmos 2084 3.9 19:46:15 10° NW 19:50:29 52° NNE 19:50:29 52° NNE
SJ-6B 3.3 19:50:50 48° SW 19:51:24 54° W 19:55:12 10° NNW
OBJECT-B 2.5 19:55:53 29° NNW 19:55:53 29° NNW 19:57:39 10° NNW
ISS -2.2 19:51:56 10° WNW 19:54:07 33° W 19:54:07 33° W
Cosmos 2279 Rocket 4.1 19:49:19 10° SSW 19:55:34 74° W 20:01:53 10° N
Meteor 1-21 Rocket 4.2 19:50:48 10° N 19:56:42 85° E 19:58:18 51° SSE
DMSP B5D2-2 4.0 19:53:36 10° NNE 19:58:55 84° WNW 20:04:12 10° SSW
Cosmos 1655 Rocket 4.0 19:54:57 10° N 20:01:17 82° W 20:04:13 34° S
ATLAS CENTAUR R/B 3.4 20:03:58 10° NNW 20:05:28 17° N 20:05:28 17° N
Cosmos 2278 Rocket 3.2 20:02:19 10° SW 20:07:44 45° NW 20:13:11 10° NNE
Gbstr 26 Del rocket 4.2 20:03:20 10° WSW 20:10:22 84° SSE 20:13:01 46° ENE
Cosmos 1190 Rocket 4.2 20:09:29 10° NNW 20:14:05 61° NNE 20:14:05 61° NNE
Lacrosse 4 Rocket 3.8 20:17:54 10° WNW 20:20:24 16° WSW 20:21:36 14° SW
Lacrosse 5 rocket 2.9 20:19:12 10° WNW 20:22:36 33° WSW 20:22:36 33° WSW
MetOp-B 4.4 20:35:17 62° NNW 20:35:17 62° NNW 20:39:43 10° NNW
CZ-4C R/B 2.7 20:31:51 10° WSW 20:36:57 57° NW 20:43:09 10° NE
SPOT 3 Rocket 4.2 20:38:02 49° WSW 20:38:08 49° W 20:43:10 10° NNW
Cosmos 2266 Rocket 4.4 20:33:47 10° NNW 20:39:39 55° W 20:40:53 47° SW
CZ-2C R/B 4.1 20:36:47 10° N 20:41:53 37° WNW 20:46:59 10° SW
Terra 4.0 20:45:21 18° NNE 20:45:21 18° NNE 20:46:48 10° N
Cosmos 1140 Rocket 4.1 20:37:48 10° NNW 20:41:41 51° NW 20:41:41 51° NW
Resurs 01 Rocket 3.2 20:47:36 34° NW 20:47:36 34° NW 20:50:30 10° NNW
USA 229 DEB 4.1 20:55:23 10° NW 21:02:11 56° NNE 21:02:11 56° NNE
USA 229 4.2 20:55:30 10° NW 21:02:17 56° NNE 21:02:17 56° NNE
NOSS 3-1 (A) 4.3 21:07:49 10° NW 21:14:31 56° NNE 21:14:31 56° NNE
Cosmos 2297 Rocket 4.3 21:23:19 10° N 21:25:58 18° NNE 21:25:58 18° NNE
ATLAS 2AS CENTAUR R/B 4.5 21:23:35 10° WNW 21:30:29 31° NNW 21:37:08 10° NE
NOSS 3-1 (C) 4.4 21:41:49 10° NW 21:47:29 59° NW 21:47:29 59° NW
CZ-4C R/B 4.3 22:22:05 10° WNW 22:26:52 26° NNW 22:32:25 10° NE
Cosmos 2227 Rocket 4.5 22:22:03 10° NNW 22:23:54 19° N 22:23:54 19° N
ATLAS 2AS CENTAUR R/B 4.4 23:17:07 10° NW 23:23:49 30° NNE 23:25:52 26° NE
